Home > Time Zones > World Clock > Weather > Russia > Ufa > Past weeks

Flag for Russia Weather past 2 weeks in Ufa, Russia

Now
59 °F

Partly sunny.


Feels Like: 58 °F
Forecast: 37 / 63 °F
Wind: 8 mph from Northeast

Location: Ufa

Current Time: Sep 1, 2014 at 1:31:37 PM

Latest Report: Sep 1, 2014 at 1:00 PM


Visibility: N/A

Pressure: 30.12 "Hg

Humidity: 59%

Dew point: 45 °F

Location of UfaLocation

Historic Weather in Ufa — Graph

°F

Ufa temperature yesterday

Maximum temperature yesterday: 66 °F (at 1:00 PM)
Minimum temperature yesterday: 50 °F (at 4:00 AM)
Average temperature yesterday: 57 °F

Past Weeks' High & Low Weather Summary

 TemperatureHumidityPressure
High93 °F (Aug 17, 3:00 PM)100% (Aug 21, 5:00 AM)30.15 "Hg (Aug 21, 5:00 AM)
Low45 °F (Aug 26, 6:30 AM)21% (Aug 17, 3:30 PM)29.50 "Hg (Aug 29, 5:30 PM)
Average66 °F76%29.88 "Hg
* Reported Aug 17 12:00 Noon — Sep 1 12:30 PM, Ufa, Weather by CustomWeather, © 2014

Note: Actual official high and low records may vary slightly from our data, if they occured in-between our weather recording intervals... More about our weather records

Advertising

Ufa weather history for previous 24 hours

 ConditionsComfort  
Time TempWeatherWind HumidityBarometerVisibility
12:30 PM
Sep 1
59 °FPartly sunny.6 mph59%30.12 "HgN/A
12:00 PM59 °FBroken clouds.10 mph63%30.12 "HgN/A
11:30 AM57 °FPartly sunny.10 mph63%30.12 "HgN/A
11:00 AM55 °FPartly sunny.10 mph77%30.12 "HgN/A
10:30 AM54 °FBroken clouds.8 mph88%30.09 "HgN/A
10:00 AM54 °FBroken clouds.10 mph88%30.09 "HgN/A
9:30 AM54 °FBroken clouds.10 mph88%30.09 "HgN/A
9:00 AM52 °FBroken clouds.8 mph94%30.07 "HgN/A
8:30 AM52 °FPartly sunny.6 mph94%30.07 "HgN/A
8:00 AM50 °FOvercast.6 mph94%30.04 "HgN/A
7:30 AM50 °FOvercast.6 mph94%30.04 "HgN/A
7:00 AM50 °FOvercast.6 mph94%30.01 "HgN/A
6:30 AM50 °FPassing clouds.8 mph94%30.01 "HgN/A
6:00 AM50 °FPassing clouds.6 mph94%30.01 "HgN/A
5:30 AM50 °FPassing clouds.6 mph94%29.98 "HgN/A
5:00 AM52 °FPassing clouds.6 mph88%29.98 "HgN/A
4:30 AM52 °FPassing clouds.6 mph88%29.98 "HgN/A
4:00 AM50 °FPassing clouds.6 mph94%29.98 "HgN/A
3:30 AM52 °FPassing clouds.8 mph88%29.95 "HgN/A
3:00 AM54 °FPassing clouds.8 mph88%29.95 "HgN/A
2:30 AM54 °FPassing clouds.6 mph88%29.95 "HgN/A
2:00 AM54 °FPassing clouds.6 mph88%29.95 "HgN/A
1:30 AM54 °FPassing clouds.6 mph88%29.95 "HgN/A
1:00 AM54 °FPassing clouds.3 mph94%29.92 "HgN/A
12:30 AM54 °FSprinkles. Passing clouds.6 mph94%29.92 "HgN/A
12:00 AM55 °FSprinkles. Passing clouds.1 mph88%29.92 "HgN/A
11:30 PM
Aug 31
55 °FThundershowers. Passing clouds.3 mph88%29.92 "HgN/A
11:00 PM55 °FPassing clouds.6 mph88%29.92 "HgN/A
10:30 PM55 °FSprinkles. Partly cloudy.3 mph88%29.92 "HgN/A
10:00 PM57 °FSprinkles. Partly cloudy.3 mph88%29.92 "HgN/A
9:30 PM59 °FSprinkles. Passing clouds.3 mph77%29.89 "HgN/A
9:00 PM59 °FPartly sunny.6 mph82%29.89 "HgN/A
8:30 PM59 °FPartly sunny.3 mph88%29.89 "HgN/A
8:00 PM61 °FBroken clouds.3 mph77%29.89 "HgN/A
7:30 PM61 °FBroken clouds.8 mph68%29.89 "HgN/A
7:00 PM63 °FBroken clouds.8 mph59%29.86 "HgN/A
6:30 PM63 °FBroken clouds.10 mph59%29.86 "HgN/A
6:00 PM63 °FBroken clouds.3 mph77%29.86 "HgN/A
5:30 PM63 °FBroken clouds.3 mph77%29.86 "HgN/A
5:00 PM63 °FBroken clouds.1 mph68%29.86 "HgN/A
4:30 PM61 °FBroken clouds.No wind77%29.86 "HgN/A
4:00 PM61 °FBroken clouds.6 mph77%29.86 "HgN/A
3:30 PM59 °FThundershowers. Partly sunny.10 mph82%29.86 "HgN/A
3:00 PM55 °FThunderstorms. Mostly cloudy.13 mph94%29.86 "HgN/A
2:30 PM61 °FThundershowers. Mostly cloudy.15 mph72%29.86 "HgN/A
2:00 PM61 °FThundershowers. Broken clouds.13 mph72%29.86 "HgN/A
1:30 PM63 °FThundershowers. Broken clouds.13 mph73%29.86 "HgN/A
1:00 PM66 °FBroken clouds.10 mph64%29.86 "HgN/A
Weather by CustomWeather, © 2014

See weather overviewHow to use our weather pages